Year,Month,Day,Hour,Minute,Value (Times are PST for temperature in C)
2021,04,11,00,00,4.90
2021,04,11,00,01,4.90
2021,04,11,00,02,4.80
2021,04,11,00,03,4.80
2021,04,11,00,04,4.80
2021,04,11,00,05,4.80
2021,04,11,00,06,4.80
2021,04,11,00,07,4.80
2021,04,11,00,08,4.80
2021,04,11,00,09,4.70
2021,04,11,00,10,4.70
2021,04,11,00,11,4.70
2021,04,11,00,12,4.70
2021,04,11,00,13,4.70
2021,04,11,00,14,4.60
2021,04,11,00,15,4.60
2021,04,11,00,16,4.60
2021,04,11,00,17,4.60
2021,04,11,00,18,4.60
2021,04,11,00,19,4.60
2021,04,11,00,20,4.60
2021,04,11,00,21,4.60
2021,04,11,00,22,4.60
2021,04,11,00,23,4.50
2021,04,11,00,24,4.50
2021,04,11,00,25,4.50
2021,04,11,00,26,4.40
2021,04,11,00,27,4.40
2021,04,11,00,28,4.40
2021,04,11,00,29,4.30
2021,04,11,00,30,4.30
2021,04,11,00,31,4.20
2021,04,11,00,32,4.20
2021,04,11,00,33,4.20
2021,04,11,00,34,4.20
2021,04,11,00,35,4.10
2021,04,11,00,36,4.10
2021,04,11,00,37,4.00
2021,04,11,00,38,4.00
2021,04,11,00,39,4.00
2021,04,11,00,40,4.00
2021,04,11,00,41,3.90
2021,04,11,00,42,3.90
2021,04,11,00,43,3.80
2021,04,11,00,44,3.80
2021,04,11,00,45,3.80
2021,04,11,00,46,3.70
2021,04,11,00,47,3.70
2021,04,11,00,48,3.60
2021,04,11,00,49,3.60
2021,04,11,00,50,3.50
2021,04,11,00,51,3.50
2021,04,11,00,52,3.40
2021,04,11,00,53,3.40
2021,04,11,00,54,3.30
2021,04,11,00,55,3.30
2021,04,11,00,56,3.20
2021,04,11,00,57,3.20
2021,04,11,00,58,3.10
2021,04,11,00,59,3.10
2021,04,11,01,00,3.00
2021,04,11,01,01,2.90
2021,04,11,01,02,2.90
2021,04,11,01,03,2.90
2021,04,11,01,04,2.80
2021,04,11,01,05,2.80
2021,04,11,01,06,2.70
2021,04,11,01,07,2.70
2021,04,11,01,08,2.70
2021,04,11,01,09,2.70
2021,04,11,01,10,2.70
2021,04,11,01,11,2.70
2021,04,11,01,12,2.70
2021,04,11,01,13,2.70
2021,04,11,01,14,2.70
2021,04,11,01,15,2.70
2021,04,11,01,16,2.70
2021,04,11,01,17,2.70
2021,04,11,01,18,2.70
2021,04,11,01,19,2.70
2021,04,11,01,20,2.70
2021,04,11,01,21,2.70
2021,04,11,01,22,2.70
2021,04,11,01,23,2.60
2021,04,11,01,24,2.60
2021,04,11,01,25,2.50
2021,04,11,01,26,2.50
2021,04,11,01,27,2.50
2021,04,11,01,28,2.40
2021,04,11,01,29,2.40
2021,04,11,01,30,2.40
2021,04,11,01,31,2.40
2021,04,11,01,32,2.40
2021,04,11,01,33,2.40
2021,04,11,01,34,2.30
2021,04,11,01,35,2.30
2021,04,11,01,36,2.30
2021,04,11,01,37,2.30
2021,04,11,01,38,2.20
2021,04,11,01,39,2.20
2021,04,11,01,40,2.20
2021,04,11,01,41,2.20
2021,04,11,01,42,2.20
2021,04,11,01,43,2.20
2021,04,11,01,44,2.20
2021,04,11,01,45,2.20
2021,04,11,01,46,2.30
2021,04,11,01,47,2.40
2021,04,11,01,48,2.50
2021,04,11,01,49,2.50
2021,04,11,01,50,2.60
2021,04,11,01,51,2.60
2021,04,11,01,52,2.50
2021,04,11,01,53,2.50
2021,04,11,01,54,2.40
2021,04,11,01,55,2.30
2021,04,11,01,56,2.30
2021,04,11,01,57,2.20
2021,04,11,01,58,2.20
2021,04,11,01,59,2.20
2021,04,11,02,00,2.10
2021,04,11,02,01,2.10
2021,04,11,02,02,2.10
2021,04,11,02,03,2.10
2021,04,11,02,04,2.10
2021,04,11,02,05,2.00
2021,04,11,02,06,2.00
2021,04,11,02,07,1.90
2021,04,11,02,08,1.90
2021,04,11,02,09,1.90
2021,04,11,02,10,1.80
2021,04,11,02,11,1.80
2021,04,11,02,12,1.80
2021,04,11,02,13,1.80
2021,04,11,02,14,1.80
2021,04,11,02,15,1.70
2021,04,11,02,16,1.70
2021,04,11,02,17,1.70
2021,04,11,02,18,1.70
2021,04,11,02,19,1.70
2021,04,11,02,20,1.70
2021,04,11,02,21,1.70
2021,04,11,02,22,1.70
2021,04,11,02,23,1.80
2021,04,11,02,24,1.80
2021,04,11,02,25,1.80
2021,04,11,02,26,1.80
2021,04,11,02,27,1.80
2021,04,11,02,28,1.80
2021,04,11,02,29,1.80
2021,04,11,02,30,1.80
2021,04,11,02,31,1.90
2021,04,11,02,32,1.90
2021,04,11,02,33,1.90
2021,04,11,02,34,2.00
2021,04,11,02,35,2.00
2021,04,11,02,36,2.00
2021,04,11,02,37,2.00
2021,04,11,02,38,2.00
2021,04,11,02,39,2.00
2021,04,11,02,40,1.90
2021,04,11,02,41,1.90
2021,04,11,02,42,1.90
2021,04,11,02,43,1.80
2021,04,11,02,44,1.80
2021,04,11,02,45,1.80
2021,04,11,02,46,1.80
2021,04,11,02,47,1.70
2021,04,11,02,48,1.70
2021,04,11,02,49,1.60
2021,04,11,02,50,1.60
2021,04,11,02,51,1.50
2021,04,11,02,52,1.50
2021,04,11,02,53,1.50
2021,04,11,02,54,1.40
2021,04,11,02,55,1.40
2021,04,11,02,56,1.40
2021,04,11,02,57,1.30
2021,04,11,02,58,1.30
2021,04,11,02,59,1.30
2021,04,11,03,00,1.30
2021,04,11,03,01,1.30
2021,04,11,03,02,1.30
2021,04,11,03,03,1.30
2021,04,11,03,04,1.30
2021,04,11,03,05,1.20
2021,04,11,03,06,1.20
2021,04,11,03,07,1.20
2021,04,11,03,08,1.20
2021,04,11,03,09,1.20
2021,04,11,03,10,1.20
2021,04,11,03,11,1.20
2021,04,11,03,12,1.20
2021,04,11,03,13,1.20
2021,04,11,03,14,1.20
2021,04,11,03,15,1.20
2021,04,11,03,16,1.20
2021,04,11,03,17,1.10
2021,04,11,03,18,1.10
2021,04,11,03,19,1.10
2021,04,11,03,20,1.10
2021,04,11,03,21,1.10
2021,04,11,03,22,1.10
2021,04,11,03,23,1.10
2021,04,11,03,24,1.10
2021,04,11,03,25,1.20
2021,04,11,03,26,1.20
2021,04,11,03,27,1.20
2021,04,11,03,28,1.20
2021,04,11,03,29,1.20
2021,04,11,03,30,1.30
2021,04,11,03,31,1.30
2021,04,11,03,32,1.30
2021,04,11,03,33,1.30
2021,04,11,03,34,1.30
2021,04,11,03,35,1.30
2021,04,11,03,36,1.30
2021,04,11,03,37,1.20
2021,04,11,03,38,1.20
2021,04,11,03,39,1.20
2021,04,11,03,40,1.10
2021,04,11,03,41,1.10
2021,04,11,03,42,1.10
2021,04,11,03,43,1.10
2021,04,11,03,44,1.00
2021,04,11,03,45,1.00
2021,04,11,03,46,1.00
2021,04,11,03,47,1.00
2021,04,11,03,48,1.00
2021,04,11,03,49,1.00
2021,04,11,03,50,1.00
2021,04,11,03,51,0.90
2021,04,11,03,52,0.90
2021,04,11,03,53,0.80
2021,04,11,03,54,0.80
2021,04,11,03,55,0.80
2021,04,11,03,56,0.80
2021,04,11,03,57,0.80
2021,04,11,03,58,0.70
2021,04,11,03,59,0.70
2021,04,11,04,00,0.70
2021,04,11,04,01,0.70
2021,04,11,04,02,0.60
2021,04,11,04,03,0.60
2021,04,11,04,04,0.60
2021,04,11,04,05,0.50
2021,04,11,04,06,0.50
2021,04,11,04,07,0.50
2021,04,11,04,08,0.50
2021,04,11,04,09,0.50
2021,04,11,04,10,0.50
2021,04,11,04,11,0.50
2021,04,11,04,12,0.40
2021,04,11,04,13,0.40
2021,04,11,04,14,0.40
2021,04,11,04,15,0.40
2021,04,11,04,16,0.40
2021,04,11,04,17,0.40
2021,04,11,04,18,0.40
2021,04,11,04,19,0.40
2021,04,11,04,20,0.30
2021,04,11,04,21,0.30
2021,04,11,04,22,0.30
2021,04,11,04,23,0.20
2021,04,11,04,24,0.20
2021,04,11,04,25,0.10
2021,04,11,04,26,0.10
2021,04,11,04,27,0.10
2021,04,11,04,28,0.10
2021,04,11,04,29,0.10
2021,04,11,04,30,0.10
2021,04,11,04,31,0.10
2021,04,11,04,32,0.10
2021,04,11,04,33,0.10
2021,04,11,04,34,0.10
2021,04,11,04,35,0.10
2021,04,11,04,36,0.10
2021,04,11,04,37,0.10
2021,04,11,04,38,0.20
2021,04,11,04,39,0.30
2021,04,11,04,40,0.30
2021,04,11,04,41,0.40
2021,04,11,04,42,0.50
2021,04,11,04,43,0.50
2021,04,11,04,44,0.60
2021,04,11,04,45,0.60
2021,04,11,04,46,0.70
2021,04,11,04,47,0.70
2021,04,11,04,48,0.70
2021,04,11,04,49,0.70
2021,04,11,04,50,0.70
2021,04,11,04,51,0.60
2021,04,11,04,52,0.60
2021,04,11,04,53,0.60
2021,04,11,04,54,0.50
2021,04,11,04,55,0.50
2021,04,11,04,56,0.50
2021,04,11,04,57,0.50
2021,04,11,04,58,0.40
2021,04,11,04,59,0.40
2021,04,11,05,00,0.40
2021,04,11,05,01,0.40
2021,04,11,05,02,0.40
2021,04,11,05,03,0.40
2021,04,11,05,04,0.30
2021,04,11,05,05,0.30
2021,04,11,05,06,0.20
2021,04,11,05,07,0.20
2021,04,11,05,08,0.20
2021,04,11,05,09,0.10
2021,04,11,05,10,0.10
2021,04,11,05,11,0.00
2021,04,11,05,12,-0.10
2021,04,11,05,13,-0.10
2021,04,11,05,14,-0.10
2021,04,11,05,15,0.00
2021,04,11,05,16,0.10
2021,04,11,05,17,0.10
2021,04,11,05,18,0.10
2021,04,11,05,19,0.10
2021,04,11,05,20,0.20
2021,04,11,05,21,0.20
2021,04,11,05,22,0.20
2021,04,11,05,23,0.10
2021,04,11,05,24,0.10
2021,04,11,05,25,0.10
2021,04,11,05,26,0.10
2021,04,11,05,27,0.10
2021,04,11,05,28,0.10
2021,04,11,05,29,0.00
2021,04,11,05,30,-0.10
2021,04,11,05,31,-0.10
2021,04,11,05,32,-0.20
2021,04,11,05,33,-0.20
2021,04,11,05,34,-0.20
2021,04,11,05,35,-0.30
2021,04,11,05,36,-0.30
2021,04,11,05,37,-0.30
2021,04,11,05,38,-0.40
2021,04,11,05,39,-0.40
2021,04,11,05,40,-0.40
2021,04,11,05,41,-0.40
2021,04,11,05,42,-0.40
2021,04,11,05,43,-0.50
2021,04,11,05,44,-0.60
2021,04,11,05,45,-0.60
2021,04,11,05,46,-0.60
2021,04,11,05,47,-0.60
2021,04,11,05,48,-0.60
2021,04,11,05,49,-0.60
2021,04,11,05,50,-0.60
2021,04,11,05,51,-0.60
2021,04,11,05,52,-0.70
2021,04,11,05,53,-0.70
2021,04,11,05,54,-0.70
2021,04,11,05,55,-0.70
2021,04,11,05,56,-0.70
2021,04,11,05,57,-0.70
2021,04,11,05,58,-0.70
2021,04,11,05,59,-0.60
2021,04,11,06,00,-0.60
2021,04,11,06,01,-0.60
2021,04,11,06,02,-0.60
2021,04,11,06,03,-0.60
2021,04,11,06,04,-0.60
2021,04,11,06,05,-0.60
2021,04,11,06,06,-0.60
2021,04,11,06,07,-0.60
2021,04,11,06,08,-0.60
2021,04,11,06,09,-0.40
2021,04,11,06,10,-0.40
2021,04,11,06,11,-0.40
2021,04,11,06,12,-0.40
2021,04,11,06,13,-0.40
2021,04,11,06,14,-0.40
2021,04,11,06,15,-0.40
2021,04,11,06,16,-0.30
2021,04,11,06,17,-0.30
2021,04,11,06,18,-0.20
2021,04,11,06,19,-0.10
2021,04,11,06,20,-0.10
2021,04,11,06,21,0.00
2021,04,11,06,22,0.10
2021,04,11,06,23,0.10
2021,04,11,06,24,0.10
2021,04,11,06,25,0.20
2021,04,11,06,26,0.20
2021,04,11,06,27,0.20
2021,04,11,06,28,0.30
2021,04,11,06,29,0.30
2021,04,11,06,30,0.40
2021,04,11,06,31,0.40
2021,04,11,06,32,0.40
2021,04,11,06,33,0.40
2021,04,11,06,34,0.50
2021,04,11,06,35,0.50
2021,04,11,06,36,0.60
2021,04,11,06,37,0.60
2021,04,11,06,38,0.70
2021,04,11,06,39,0.70
2021,04,11,06,40,0.70
2021,04,11,06,41,0.60
2021,04,11,06,42,0.60
2021,04,11,06,43,0.60
2021,04,11,06,44,0.50
2021,04,11,06,45,0.50
2021,04,11,06,46,0.40
2021,04,11,06,47,0.40
2021,04,11,06,48,0.40
2021,04,11,06,49,0.30
2021,04,11,06,50,0.30
2021,04,11,06,51,0.30
2021,04,11,06,52,0.30
2021,04,11,06,53,0.20
2021,04,11,06,54,0.20
2021,04,11,06,55,0.20
2021,04,11,06,56,0.20
2021,04,11,06,57,0.20
2021,04,11,06,58,0.30
2021,04,11,06,59,0.30
2021,04,11,07,00,0.40
2021,04,11,07,01,0.40
2021,04,11,07,02,0.50
2021,04,11,07,03,0.70
2021,04,11,07,04,0.80
2021,04,11,07,05,0.90
2021,04,11,07,06,1.10
2021,04,11,07,07,1.20
2021,04,11,07,08,1.30
2021,04,11,07,09,1.40
2021,04,11,07,10,1.50
2021,04,11,07,11,1.50
2021,04,11,07,12,1.60
2021,04,11,07,13,1.60
2021,04,11,07,14,1.70
2021,04,11,07,15,1.70
2021,04,11,07,16,1.70
2021,04,11,07,17,1.70
2021,04,11,07,18,1.80
2021,04,11,07,19,1.80
2021,04,11,07,20,1.80
2021,04,11,07,21,1.70
2021,04,11,07,22,1.80
2021,04,11,07,23,1.80
2021,04,11,07,24,1.80
2021,04,11,07,25,1.80
2021,04,11,07,26,1.80
2021,04,11,07,27,1.80
2021,04,11,07,28,1.80
2021,04,11,07,29,1.80
2021,04,11,07,30,1.80
2021,04,11,07,31,1.90
2021,04,11,07,32,1.90
2021,04,11,07,33,2.00
2021,04,11,07,34,2.10
2021,04,11,07,35,2.10
2021,04,11,07,36,2.20
2021,04,11,07,37,2.30
2021,04,11,07,38,2.40
2021,04,11,07,39,2.50
2021,04,11,07,40,2.50
2021,04,11,07,41,2.60
2021,04,11,07,42,2.70
2021,04,11,07,43,2.80
2021,04,11,07,44,2.90
2021,04,11,07,45,2.90
2021,04,11,07,46,3.00
2021,04,11,07,47,3.10
2021,04,11,07,48,3.10
2021,04,11,07,49,3.20
2021,04,11,07,50,3.30
2021,04,11,07,51,3.30
2021,04,11,07,52,3.30
2021,04,11,07,53,3.40
2021,04,11,07,54,3.50
2021,04,11,07,55,3.50
2021,04,11,07,56,3.60
2021,04,11,07,57,3.70
2021,04,11,07,58,3.80
2021,04,11,07,59,3.80
2021,04,11,08,00,3.80
2021,04,11,08,01,3.90
2021,04,11,08,02,3.90
2021,04,11,08,03,4.00
2021,04,11,08,04,4.00
2021,04,11,08,05,4.10
2021,04,11,08,06,4.10
2021,04,11,08,07,4.20
2021,04,11,08,08,4.20
2021,04,11,08,09,4.20
2021,04,11,08,10,4.30
2021,04,11,08,11,4.40
2021,04,11,08,12,4.40
2021,04,11,08,13,4.50
2021,04,11,08,14,4.50
2021,04,11,08,15,4.60
2021,04,11,08,16,4.60
2021,04,11,08,17,4.60
2021,04,11,08,18,4.70
2021,04,11,08,19,4.70
2021,04,11,08,20,4.80
2021,04,11,08,21,4.80
2021,04,11,08,22,4.90
2021,04,11,08,23,4.90
2021,04,11,08,24,4.90
2021,04,11,08,25,4.90
2021,04,11,08,26,5.00
2021,04,11,08,27,5.10
2021,04,11,08,28,5.10
2021,04,11,08,29,5.10
2021,04,11,08,30,5.20
2021,04,11,08,31,5.20
2021,04,11,08,32,5.20
2021,04,11,08,33,5.20
2021,04,11,08,34,5.20
2021,04,11,08,35,5.30
2021,04,11,08,36,5.30
2021,04,11,08,37,5.40
2021,04,11,08,38,5.50
2021,04,11,08,39,5.60
2021,04,11,08,40,5.60
2021,04,11,08,41,5.70
2021,04,11,08,42,5.70
2021,04,11,08,43,5.70
2021,04,11,08,44,5.70
2021,04,11,08,45,5.80
2021,04,11,08,46,5.80
2021,04,11,08,47,5.90
2021,04,11,08,48,6.00
2021,04,11,08,49,6.00
2021,04,11,08,50,6.10
2021,04,11,08,51,6.10
2021,04,11,08,52,6.20
2021,04,11,08,53,6.20
2021,04,11,08,54,6.20
2021,04,11,08,55,6.20
2021,04,11,08,56,6.20
2021,04,11,08,57,6.20
2021,04,11,08,58,6.30
2021,04,11,08,59,6.30
2021,04,11,09,00,6.30
2021,04,11,09,01,6.30
2021,04,11,09,02,6.40
2021,04,11,09,03,6.40
2021,04,11,09,04,6.50
2021,04,11,09,05,6.60
2021,04,11,09,06,6.60
2021,04,11,09,07,6.50
2021,04,11,09,08,6.50
2021,04,11,09,09,6.60
2021,04,11,09,10,6.60
2021,04,11,09,11,6.60
2021,04,11,09,12,6.60
2021,04,11,09,13,6.60
2021,04,11,09,14,6.70
2021,04,11,09,15,6.70
2021,04,11,09,16,6.70
2021,04,11,09,17,6.60
2021,04,11,09,18,6.60
2021,04,11,09,19,6.70
2021,04,11,09,20,6.70
2021,04,11,09,21,6.80
2021,04,11,09,22,6.80
2021,04,11,09,23,6.80
2021,04,11,09,24,6.80
2021,04,11,09,25,6.70
2021,04,11,09,26,6.60
2021,04,11,09,27,6.60
2021,04,11,09,28,6.60
2021,04,11,09,29,6.40
2021,04,11,09,30,6.40
2021,04,11,09,31,6.50
2021,04,11,09,32,6.60
2021,04,11,09,33,6.60
2021,04,11,09,34,6.60
2021,04,11,09,35,6.60
2021,04,11,09,36,6.60
2021,04,11,09,37,6.60
2021,04,11,09,38,6.50
2021,04,11,09,39,6.60
2021,04,11,09,40,6.60
2021,04,11,09,41,6.60
2021,04,11,09,42,6.60
2021,04,11,09,43,6.70
2021,04,11,09,44,6.70
2021,04,11,09,45,6.70
2021,04,11,09,46,6.70
2021,04,11,09,47,6.70
2021,04,11,09,48,6.80
2021,04,11,09,49,6.80
2021,04,11,09,50,6.80
2021,04,11,09,51,6.80
2021,04,11,09,52,6.80
2021,04,11,09,53,6.80
2021,04,11,09,54,6.80
2021,04,11,09,55,6.80
2021,04,11,09,56,6.80
2021,04,11,09,57,6.80
2021,04,11,09,58,6.80
2021,04,11,09,59,6.80
2021,04,11,10,00,6.80
2021,04,11,10,01,6.90
2021,04,11,10,02,6.90
2021,04,11,10,03,6.90
2021,04,11,10,04,6.90
2021,04,11,10,05,6.90
2021,04,11,10,06,6.90
2021,04,11,10,07,6.90
2021,04,11,10,08,6.90
2021,04,11,10,09,7.00
2021,04,11,10,10,7.10
2021,04,11,10,11,7.20
2021,04,11,10,12,7.30
2021,04,11,10,13,7.30
2021,04,11,10,14,7.30
2021,04,11,10,15,7.30
2021,04,11,10,16,7.40
2021,04,11,10,17,7.40
2021,04,11,10,18,7.30
2021,04,11,10,19,7.30
2021,04,11,10,20,7.30
2021,04,11,10,21,7.20
2021,04,11,10,22,7.10
2021,04,11,10,23,7.00
2021,04,11,10,24,7.00
2021,04,11,10,25,6.90
2021,04,11,10,26,6.90
2021,04,11,10,27,6.90
2021,04,11,10,28,6.80
2021,04,11,10,29,6.80
2021,04,11,10,30,6.90
2021,04,11,10,31,7.00
2021,04,11,10,32,7.00
2021,04,11,10,33,6.90
2021,04,11,10,34,6.90
2021,04,11,10,35,6.80
2021,04,11,10,36,6.80
2021,04,11,10,37,6.90
2021,04,11,10,38,7.00
2021,04,11,10,39,7.00
2021,04,11,10,40,7.00
2021,04,11,10,41,7.00
2021,04,11,10,42,7.00
2021,04,11,10,43,7.00
2021,04,11,10,44,7.10
2021,04,11,10,45,7.10
2021,04,11,10,46,7.00
2021,04,11,10,47,7.00
2021,04,11,10,48,7.10
2021,04,11,10,49,7.10
2021,04,11,10,50,7.20
2021,04,11,10,51,7.30
2021,04,11,10,52,7.40
2021,04,11,10,53,7.40
2021,04,11,10,54,7.40
2021,04,11,10,55,7.40
2021,04,11,10,56,7.40
2021,04,11,10,57,7.40
2021,04,11,10,58,7.50
2021,04,11,10,59,7.50
2021,04,11,11,00,7.50
2021,04,11,11,01,7.60
2021,04,11,11,02,7.60
2021,04,11,11,03,7.70
2021,04,11,11,04,7.70
2021,04,11,11,05,7.70
2021,04,11,11,06,7.80
2021,04,11,11,07,7.80
2021,04,11,11,08,7.80
2021,04,11,11,09,7.80
2021,04,11,11,10,7.80
2021,04,11,11,11,7.70
2021,04,11,11,12,7.60
2021,04,11,11,13,7.60
2021,04,11,11,14,7.70
2021,04,11,11,15,7.80
2021,04,11,11,16,7.80
2021,04,11,11,17,7.90
2021,04,11,11,18,7.90
2021,04,11,11,19,7.90
2021,04,11,11,20,7.90
2021,04,11,11,21,7.90
2021,04,11,11,22,7.90
2021,04,11,11,23,8.00
2021,04,11,11,24,8.00
2021,04,11,11,25,8.00
2021,04,11,11,26,7.90
2021,04,11,11,27,7.90
2021,04,11,11,28,7.90
2021,04,11,11,29,8.00
2021,04,11,11,30,8.00
2021,04,11,11,31,7.90
2021,04,11,11,32,7.90
2021,04,11,11,33,7.80
2021,04,11,11,34,7.80
2021,04,11,11,35,7.80
2021,04,11,11,36,7.80
2021,04,11,11,37,7.80
2021,04,11,11,38,7.80
2021,04,11,11,39,7.80
2021,04,11,11,40,7.80
2021,04,11,11,41,7.80
2021,04,11,11,42,7.80
2021,04,11,11,43,7.80
2021,04,11,11,44,7.90
2021,04,11,11,45,7.90
2021,04,11,11,46,7.80
2021,04,11,11,47,7.80
2021,04,11,11,48,7.80
2021,04,11,11,49,7.80
2021,04,11,11,50,7.90
2021,04,11,11,51,7.90
2021,04,11,11,52,8.00
2021,04,11,11,53,8.10
2021,04,11,11,54,8.20
2021,04,11,11,55,8.20
2021,04,11,11,56,8.30
2021,04,11,11,57,8.30
2021,04,11,11,58,8.30
2021,04,11,11,59,8.20
2021,04,11,12,00,8.20
2021,04,11,12,01,8.20
2021,04,11,12,02,8.20
2021,04,11,12,03,8.20
2021,04,11,12,04,8.10
2021,04,11,12,05,8.00
2021,04,11,12,06,8.00
2021,04,11,12,07,8.00
2021,04,11,12,08,8.00
2021,04,11,12,09,8.00
2021,04,11,12,10,7.90
2021,04,11,12,11,7.90
2021,04,11,12,12,7.90
2021,04,11,12,13,7.80
2021,04,11,12,14,7.80
2021,04,11,12,15,7.90
2021,04,11,12,16,8.00
2021,04,11,12,17,8.00
2021,04,11,12,18,8.00
2021,04,11,12,19,7.90
2021,04,11,12,20,7.90
2021,04,11,12,21,7.90
2021,04,11,12,22,8.00
2021,04,11,12,23,8.00
2021,04,11,12,24,8.10
2021,04,11,12,25,8.20
2021,04,11,12,26,8.20
2021,04,11,12,27,8.10
2021,04,11,12,28,8.00
2021,04,11,12,29,8.00
2021,04,11,12,30,8.10
2021,04,11,12,31,8.20
2021,04,11,12,32,8.30
2021,04,11,12,33,8.30
2021,04,11,12,34,8.20
2021,04,11,12,35,8.20
2021,04,11,12,36,8.20
2021,04,11,12,37,8.30
2021,04,11,12,38,8.40
2021,04,11,12,39,8.50
2021,04,11,12,40,8.50
2021,04,11,12,41,8.50
2021,04,11,12,42,8.40
2021,04,11,12,43,8.40
2021,04,11,12,44,8.30
2021,04,11,12,45,8.20
2021,04,11,12,46,8.30
2021,04,11,12,47,8.30
2021,04,11,12,48,8.40
2021,04,11,12,49,8.50
2021,04,11,12,50,8.50
2021,04,11,12,51,8.50
2021,04,11,12,52,8.40
2021,04,11,12,53,8.20
2021,04,11,12,54,8.10
2021,04,11,12,55,8.00
2021,04,11,12,56,8.00
2021,04,11,12,57,8.00
2021,04,11,12,58,8.10
2021,04,11,12,59,8.10
2021,04,11,13,00,8.20
2021,04,11,13,01,8.30
2021,04,11,13,02,8.40
2021,04,11,13,03,8.50
2021,04,11,13,04,8.50
2021,04,11,13,05,8.40
2021,04,11,13,06,8.20
2021,04,11,13,07,8.20
2021,04,11,13,08,8.20
2021,04,11,13,09,8.20
2021,04,11,13,10,8.20
2021,04,11,13,11,8.20
2021,04,11,13,12,8.20
2021,04,11,13,13,8.30
2021,04,11,13,14,8.30
2021,04,11,13,15,8.30
2021,04,11,13,16,8.20
2021,04,11,13,17,8.20
2021,04,11,13,18,8.20
2021,04,11,13,19,8.20
2021,04,11,13,20,8.30
2021,04,11,13,21,8.30
2021,04,11,13,22,8.20
2021,04,11,13,23,8.20
2021,04,11,13,24,8.20
2021,04,11,13,25,8.10
2021,04,11,13,26,8.00
2021,04,11,13,27,8.00
2021,04,11,13,28,8.00
2021,04,11,13,29,8.10
2021,04,11,13,30,8.10
2021,04,11,13,31,8.20
2021,04,11,13,32,8.20
2021,04,11,13,33,8.20
2021,04,11,13,34,8.20
2021,04,11,13,35,8.20
2021,04,11,13,36,8.30
2021,04,11,13,37,8.40
2021,04,11,13,38,8.50
2021,04,11,13,39,8.70
2021,04,11,13,40,8.80
2021,04,11,13,41,8.90
2021,04,11,13,42,8.90
2021,04,11,13,43,9.00
2021,04,11,13,44,9.10
2021,04,11,13,45,9.10
2021,04,11,13,46,9.20
2021,04,11,13,47,9.20
2021,04,11,13,48,9.20
2021,04,11,13,49,9.10
2021,04,11,13,50,9.00
2021,04,11,13,51,8.90
2021,04,11,13,52,8.80
2021,04,11,13,53,8.70
2021,04,11,13,54,8.70
2021,04,11,13,55,8.60
2021,04,11,13,56,8.60
2021,04,11,13,57,8.50
2021,04,11,13,58,8.40
2021,04,11,13,59,8.40
2021,04,11,14,00,8.40
2021,04,11,14,01,8.50
2021,04,11,14,02,8.50
2021,04,11,14,03,8.60
2021,04,11,14,04,8.70
2021,04,11,14,05,8.70
2021,04,11,14,06,8.70
2021,04,11,14,07,8.70
2021,04,11,14,08,8.90
2021,04,11,14,09,9.00
2021,04,11,14,10,9.20
2021,04,11,14,11,9.20
2021,04,11,14,12,9.20
2021,04,11,14,13,9.20
2021,04,11,14,14,9.20
2021,04,11,14,15,9.10
2021,04,11,14,16,9.10
2021,04,11,14,17,9.10
2021,04,11,14,18,9.10
2021,04,11,14,19,9.20
2021,04,11,14,20,9.10
2021,04,11,14,21,9.10
2021,04,11,14,22,9.00
2021,04,11,14,23,8.90
2021,04,11,14,24,8.90
2021,04,11,14,25,8.90
2021,04,11,14,26,8.90
2021,04,11,14,27,8.80
2021,04,11,14,28,8.80
2021,04,11,14,29,8.70
2021,04,11,14,30,8.70
2021,04,11,14,31,8.70
2021,04,11,14,32,8.70
2021,04,11,14,33,8.70
2021,04,11,14,34,8.70
2021,04,11,14,35,8.80
2021,04,11,14,36,8.80
2021,04,11,14,37,8.90
2021,04,11,14,38,9.00
2021,04,11,14,39,9.00
2021,04,11,14,40,9.20
2021,04,11,14,41,9.10
2021,04,11,14,42,8.90
2021,04,11,14,43,8.80
2021,04,11,14,44,8.70
2021,04,11,14,45,8.70
2021,04,11,14,46,8.80
2021,04,11,14,47,8.80
2021,04,11,14,48,8.80
2021,04,11,14,49,8.70
2021,04,11,14,50,8.70
2021,04,11,14,51,8.80
2021,04,11,14,52,8.80
2021,04,11,14,53,8.90
2021,04,11,14,54,8.90
2021,04,11,14,55,8.90
2021,04,11,14,56,9.00
2021,04,11,14,57,9.00
2021,04,11,14,58,9.00
2021,04,11,14,59,8.90
2021,04,11,15,00,8.80
2021,04,11,15,01,8.80
2021,04,11,15,02,8.90
2021,04,11,15,03,8.90
2021,04,11,15,04,9.00
2021,04,11,15,05,9.00
2021,04,11,15,06,9.00
2021,04,11,15,07,9.00
2021,04,11,15,08,9.00
2021,04,11,15,09,9.00
2021,04,11,15,10,9.10
2021,04,11,15,11,9.10
2021,04,11,15,12,9.20
2021,04,11,15,13,9.20
2021,04,11,15,14,9.30
2021,04,11,15,15,9.30
2021,04,11,15,16,9.30
2021,04,11,15,17,9.20
2021,04,11,15,18,9.20
2021,04,11,15,19,9.20
2021,04,11,15,20,9.20
2021,04,11,15,21,9.20
2021,04,11,15,22,9.20
2021,04,11,15,23,9.20
2021,04,11,15,24,9.20
2021,04,11,15,25,9.40
2021,04,11,15,26,9.40
2021,04,11,15,27,9.40
2021,04,11,15,28,9.30
2021,04,11,15,29,9.40
2021,04,11,15,30,9.50
2021,04,11,15,31,9.50
2021,04,11,15,32,9.50
2021,04,11,15,33,9.40
2021,04,11,15,34,9.40
2021,04,11,15,35,9.30
2021,04,11,15,36,9.20
2021,04,11,15,37,9.20
2021,04,11,15,38,9.10
2021,04,11,15,39,9.10
2021,04,11,15,40,9.00
2021,04,11,15,41,9.00
2021,04,11,15,42,8.90
2021,04,11,15,43,8.80
2021,04,11,15,44,8.80
2021,04,11,15,45,8.80
2021,04,11,15,46,8.80
2021,04,11,15,47,8.90
2021,04,11,15,48,8.90
2021,04,11,15,49,9.10
2021,04,11,15,50,9.20
2021,04,11,15,51,9.20
2021,04,11,15,52,9.20
2021,04,11,15,53,9.30
2021,04,11,15,54,9.40
2021,04,11,15,55,9.40
2021,04,11,15,56,9.50
2021,04,11,15,57,9.50
2021,04,11,15,58,9.60
2021,04,11,15,59,9.60
2021,04,11,16,00,9.70
2021,04,11,16,01,9.80
2021,04,11,16,02,9.80
2021,04,11,16,03,9.70
2021,04,11,16,04,9.70
2021,04,11,16,05,9.60
2021,04,11,16,06,9.60
2021,04,11,16,07,9.60
2021,04,11,16,08,9.40
2021,04,11,16,09,9.30
2021,04,11,16,10,9.20
2021,04,11,16,11,9.10
2021,04,11,16,12,9.00
2021,04,11,16,13,9.00
2021,04,11,16,14,9.00
2021,04,11,16,15,9.00
2021,04,11,16,16,9.10
2021,04,11,16,17,9.20
2021,04,11,16,18,9.20
2021,04,11,16,19,9.30
2021,04,11,16,20,9.40
2021,04,11,16,21,9.50
2021,04,11,16,22,9.50
2021,04,11,16,23,9.60
2021,04,11,16,24,9.70
2021,04,11,16,25,9.70
2021,04,11,16,26,9.60
2021,04,11,16,27,9.60
2021,04,11,16,28,9.50
2021,04,11,16,29,9.40
2021,04,11,16,30,9.30
2021,04,11,16,31,9.20
2021,04,11,16,32,9.20
2021,04,11,16,33,9.20
2021,04,11,16,34,9.20
2021,04,11,16,35,9.20
2021,04,11,16,36,9.30
2021,04,11,16,37,9.40
2021,04,11,16,38,9.40
2021,04,11,16,39,9.40
2021,04,11,16,40,9.30
2021,04,11,16,41,9.30
2021,04,11,16,42,9.20
2021,04,11,16,43,9.20
2021,04,11,16,44,9.20
2021,04,11,16,45,9.20
2021,04,11,16,46,9.20
2021,04,11,16,47,9.20
2021,04,11,16,48,9.40
2021,04,11,16,49,9.50
2021,04,11,16,50,9.50
2021,04,11,16,51,9.60
2021,04,11,16,52,9.70
2021,04,11,16,53,9.80
2021,04,11,16,54,9.80
2021,04,11,16,55,9.80
2021,04,11,16,56,9.80
2021,04,11,16,57,9.70
2021,04,11,16,58,9.60
2021,04,11,16,59,9.50
2021,04,11,17,00,9.40
2021,04,11,17,01,9.40
2021,04,11,17,02,9.50
2021,04,11,17,03,9.50
2021,04,11,17,04,9.40
2021,04,11,17,05,9.40
2021,04,11,17,06,9.40
2021,04,11,17,07,9.40
2021,04,11,17,08,9.50
2021,04,11,17,09,9.40
2021,04,11,17,10,9.40
2021,04,11,17,11,9.40
2021,04,11,17,12,9.40
2021,04,11,17,13,9.40
2021,04,11,17,14,9.30
2021,04,11,17,15,9.30
2021,04,11,17,16,9.30
2021,04,11,17,17,9.30
2021,04,11,17,18,9.30
2021,04,11,17,19,9.40
2021,04,11,17,20,9.50
2021,04,11,17,21,9.60
2021,04,11,17,22,9.70
2021,04,11,17,23,9.70
2021,04,11,17,24,9.70
2021,04,11,17,25,9.80
2021,04,11,17,26,9.80
2021,04,11,17,27,9.90
2021,04,11,17,28,9.90
2021,04,11,17,29,10.00
2021,04,11,17,30,10.10
2021,04,11,17,31,10.10
2021,04,11,17,32,10.10
2021,04,11,17,33,10.10
2021,04,11,17,34,10.00
2021,04,11,17,35,9.90
2021,04,11,17,36,9.90
2021,04,11,17,37,9.90
2021,04,11,17,38,9.90
2021,04,11,17,39,9.80
2021,04,11,17,40,9.70
2021,04,11,17,41,9.70
2021,04,11,17,42,9.60
2021,04,11,17,43,9.60
2021,04,11,17,44,9.50
2021,04,11,17,45,9.50
2021,04,11,17,46,9.50
2021,04,11,17,47,9.40
2021,04,11,17,48,9.40
2021,04,11,17,49,9.40
2021,04,11,17,50,9.40
2021,04,11,17,51,9.40
2021,04,11,17,52,9.50
2021,04,11,17,53,9.50
2021,04,11,17,54,9.60
2021,04,11,17,55,9.70
2021,04,11,17,56,9.80
2021,04,11,17,57,9.80
2021,04,11,17,58,9.70
2021,04,11,17,59,9.70
2021,04,11,18,00,9.70
2021,04,11,18,01,9.70
2021,04,11,18,02,9.70
2021,04,11,18,03,9.70
2021,04,11,18,04,9.70